COSMOS 2516 (753)

Last updated on Aug. 14, 2020, 5:31 a.m. UTC

1 41554U 16032A   20226.06904949  .00000066  00000-0  00000-0 0  9996
2 41554  64.0939 264.8998 0014976 220.4049  17.1296  2.13101768 32747
UTC
Height (km)
Latitude
Longitude
Inclination
Orbital Period
UTC large
Height (km)
Speed (km/s)
/
Latitude / Longitude
Inclination (degrees)
Orbital Period (minutes)
Azimuth
Elevation
Range (km)
Doppler Factor
iOS Compass Heading
iOS Angle

Next 30 passes for location: Hong Kong

Rise time Rise Azimuth (degrees) Set time Set Azimuth (degrees) Duration Max altitude (degrees)

No matching passes for this satellites